QPF
0.01 0.00 0.00 0.03 0.05 0.07 0.05 0.07 0.16 0.12 0.06 0.06 0.04 0.01 0.00 0.00 0.01 0.04 0.04 0.01 0.03 0.01 0.00 0.00 0.00 0.00 0.00 0.00 0.00 0.00 0.00 0.00 0.00 0.00 0.00 0.00 0.00 0.00 0.00 0.00 0.00 0.00 0.00 0.00 0.00 0.00 0.00 0.00 0.00 0.00 0.00 0.00 0.00 0.00
0.08 0.02 0.02 0.09 0.13 0.08 0.04 0.09 0.14 0.07 0.02 0.02 0.02 0.00 0.00 0.00 0.03 0.07 0.04 0.01 0.01 0.00 0.00 0.00 0.00 0.00 0.00 0.00 0.00 0.00 0.00 0.00 0.00 0.00 0.00 0.00 0.00 0.00 0.00 0.00 0.00 0.00 0.00 0.00 0.00 0.00 0.00 0.00 0.00 0.00 0.00 0.00 0.00 0.00
0.11 0.03 0.04 0.16 0.14 0.06 0.05 0.06 0.06 0.02 0.00 0.00 0.00 0.00 0.00 0.01 0.04 0.09 0.05 0.00 0.00 0.00 0.00 0.00 0.00 0.00 0.00 0.00 0.00 0.00 0.00 0.00 0.00 0.00 0.00 0.00 0.00 0.00 0.00 0.00 0.00 0.00 0.00 0.00 0.00 0.00 0.00 0.00 0.00 0.00 0.00 0.00 0.00 0.00
0.05 0.04 0.08 0.17 0.08 0.03 0.02 0.01 0.01 0.00 0.00 0.00 0.00 0.00 0.00 0.02 0.05 0.09 0.07 0.03 0.01 0.01 0.02 0.00 0.00 0.00 0.00 0.00 0.00 0.00 0.00 0.00 0.00 0.00 0.00 0.00 0.00 0.00 0.00 0.00 0.00 0.00 0.00 0.00 0.00 0.00 0.00 0.00 0.00 0.00 0.00 0.00 0.00 0.00
0.03 0.03 0.06 0.04 0.01 0.00 0.00 0.00 0.00 0.00 0.00 0.00 0.00 0.00 0.00 0.02 0.03 0.06 0.11 0.08 0.06 0.04 0.02 0.00 0.00 0.00 0.00 0.00 0.00 0.00 0.00 0.00 0.00 0.00 0.00 0.00 0.00 0.00 0.00 0.00 0.00 0.00 0.00 0.00 0.00 0.00 0.00 0.00 0.00 0.00 0.00 0.00 0.00 0.00
0.05 0.02 0.02 0.02 0.02 0.03 0.01 0.01 0.00 0.00 0.00 0.00 0.00 0.00 0.00 0.02 0.02 0.02 0.06 0.04 0.04 0.02 0.01 0.01 0.00 0.00 0.00 0.00 0.00 0.00 0.00 0.00 0.00 0.00 0.00 0.00 0.00 0.00 0.00 0.00 0.00 0.00 0.00 0.00 0.00 0.00 0.00 0.00 0.00 0.00 0.00 0.00 0.00 0.00
0.04 0.05 0.04 0.03 0.03 0.04 0.04 0.05 0.03 0.01 0.01 0.00 0.00 0.00 0.00 0.02 0.04 0.05 0.03 0.02 0.03 0.01 0.03 0.02 0.03 0.01 0.00 0.00 0.00 0.00 0.00 0.00 0.00 0.00 0.00 0.00 0.00 0.00 0.00 0.00 0.00 0.00 0.00 0.00 0.00 0.00 0.00 0.00 0.00 0.00 0.00 0.00 0.00 0.00
0.01 0.02 0.02 0.02 0.03 0.07 0.09 0.09 0.06 0.05 0.04 0.01 0.01 0.01 0.03 0.04 0.04 0.02 0.01 0.01 0.02 0.00 0.00 0.01 0.01 0.02 0.01 0.01 0.01 0.00 0.00 0.00 0.00 0.00 0.00 0.00 0.00 0.00 0.00 0.00 0.00 0.00 0.00 0.00 0.00 0.00 0.00 0.00 0.00 0.00 0.00 0.00 0.00 0.00
0.00 0.00 0.00 0.02 0.02 0.02 0.03 0.06 0.07 0.05 0.05 0.03 0.03 0.04 0.03 0.03 0.01 0.01 0.00 0.00 0.00 0.00 0.00 0.00 0.01 0.02 0.01 0.01 0.01 0.01 0.01 0.01 0.00 0.00 0.00 0.00 0.00 0.00 0.00 0.00 0.00 0.00 0.00 0.00 0.00 0.00 0.00 0.00 0.00 0.00 0.00 0.00 0.00 0.00
0.00 0.01 0.03 0.02 0.00 0.00 0.00 0.01 0.01 0.01 0.01 0.01 0.02 0.01 0.02 0.01 0.00 0.00 0.00 0.00 0.00 0.00 0.00 0.00 0.00 0.00 0.00 0.00 0.01 0.00 0.00 0.00 0.00 0.00 0.00 0.00 0.00 0.00 0.00 0.00 0.00 0.00 0.00 0.00 0.00 0.00 0.00 0.00 0.00 0.00 0.00 0.00 0.00 0.00
0.00 0.02 0.02 0.01 0.00 0.00 0.00 0.00 0.00 0.00 0.00 0.00 0.00 0.00 0.00 0.00 0.00 0.00 0.00 0.00 0.00 0.00 0.00 0.00 0.00 0.00 0.00 0.00 0.00 0.00 0.00 0.00 0.00 0.00 0.00 0.00 0.00 0.00 0.00 0.00 0.00 0.00 0.00 0.00 0.00 0.00 0.00 0.00 0.00 0.00 0.00 0.00 0.00 0.00
0.00 0.01 0.00 0.01 0.00 0.00 0.00 0.00 0.00 0.00 0.00 0.00 0.00 0.00 0.00 0.00 0.00 0.00 0.00 0.00 0.00 0.00 0.00 0.00 0.00 0.00 0.00 0.00 0.00 0.00 0.00 0.00 0.00 0.00 0.00 0.00 0.00 0.00 0.00 0.00 0.00 0.00 0.00 0.00 0.00 0.00 0.00 0.00 0.00 0.00 0.00 0.00 0.00 0.00
0.03 0.01 0.01 0.01 0.00 0.00 0.00 0.00 0.00 0.00 0.00 0.00 0.00 0.00 0.00 0.00 0.00 0.00 0.00 0.00 0.00 0.00 0.00 0.00 0.00 0.00 0.00 0.00 0.00 0.00 0.00 0.00 0.00 0.00 0.00 0.00 0.00 0.00 0.00 0.00 0.00 0.00 0.00 0.00 0.00 0.00 0.00 0.00 0.00 0.00 0.00 0.00 0.00 0.00
0.04 0.02 0.03 0.02 0.00 0.00 0.00 0.00 0.00 0.00 0.00 0.00 0.00 0.00 0.00 0.00 0.00 0.00 0.00 0.00 0.00 0.00 0.00 0.00 0.00 0.00 0.00 0.00 0.00 0.00 0.00 0.00 0.00 0.00 0.00 0.00 0.00 0.00 0.00 0.00 0.00 0.00 0.00 0.00 0.00 0.00 0.00 0.00 0.00 0.00 0.00 0.00 0.00 0.00
0.05 0.06 0.05 0.05 0.03 0.01 0.01 0.01 0.01 0.00 0.00 0.01 0.00 0.00 0.00 0.00 0.00 0.00 0.00 0.00 0.00 0.00 0.00 0.00 0.00 0.00 0.00 0.00 0.00 0.00 0.00 0.00 0.00 0.00 0.00 0.00 0.00 0.00 0.00 0.00 0.00 0.00 0.00 0.00 0.00 0.00 0.00 0.00 0.00 0.00 0.00 0.00 0.00 0.00
0.02 0.05 0.08 0.09 0.04 0.02 0.01 0.02 0.03 0.00 0.00 0.01 0.00 0.00 0.00 0.00 0.00 0.00 0.00 0.00 0.00 0.00 0.00 0.00 0.00 0.00 0.00 0.00 0.00 0.00 0.01 0.01 0.00 0.00 0.00 0.00 0.00 0.00 0.00 0.00 0.00 0.00 0.00 0.00 0.00 0.00 0.00 0.00 0.00 0.00 0.00 0.00 0.00 0.00
0.01 0.01 0.03 0.02 0.01 0.01 0.00 0.01 0.03 0.03 0.00 0.00 0.00 0.00 0.00 0.00 0.00 0.00 0.00 0.00 0.00 0.00 0.00 0.00 0.00 0.00 0.00 0.00 0.01 0.00 0.01 0.00 0.00 0.00 0.00 0.00 0.00 0.00 0.00 0.00 0.00 0.00 0.00 0.00 0.00 0.00 0.00 0.00 0.00 0.00 0.00 0.00 0.00 0.00
0.00 0.00 0.00 0.00 0.00 0.00 0.00 0.00 0.00 0.00 0.00 0.01 0.01 0.01 0.00 0.01 0.00 0.00 0.00 0.00 0.00 0.00 0.00 0.00 0.00 0.00 0.01 0.01 0.00 0.00 0.00 0.00 0.00 0.00 0.00 0.00 0.00 0.00 0.01 0.00 0.00 0.00 0.00 0.00 0.00 0.00 0.00 0.00 0.00 0.00 0.00 0.00 0.00 0.00
0.00 0.00 0.00 0.00 0.00 0.00 0.00 0.00 0.00 0.00 0.01 0.01 0.02 0.01 0.01 0.01 0.01 0.00 0.00 0.00 0.00 0.00 0.00 0.00 0.00 0.00 0.00 0.00 0.00 0.00 0.00 0.00 0.00 0.00 0.00 0.00 0.00 0.01 0.00 0.00 0.00 0.00 0.00 0.00 0.00 0.00 0.00 0.00 0.00 0.00 0.00 0.00 0.00 0.00
0.00 0.00 0.00 0.00 0.00 0.00 0.00 0.00 0.00 0.00 0.00 0.01 0.01 0.01 0.00 0.01 0.00 0.00 0.00 0.00 0.00 0.00 0.00 0.00 0.00 0.00 0.00 0.00 0.00 0.00 0.00 0.00 0.00 0.00 0.00 0.00 0.00 0.01 0.01 0.00 0.00 0.00 0.00 0.00 0.00 0.00 0.00 0.00 0.00 0.00 0.00 0.00 0.00 0.00
0.00 0.00 0.00 0.00 0.00 0.00 0.00 0.00 0.00 0.00 0.00 0.00 0.01 0.00 0.00 0.00 0.00 0.00 0.00 0.00 0.00 0.00 0.00 0.00 0.00 0.00 0.00 0.00 0.00 0.00 0.00 0.00 0.00 0.00 0.00 0.00 0.00 0.00 0.00 0.00 0.00 0.00 0.00 0.00 0.00 0.00 0.00 0.00 0.00 0.00 0.00 0.00 0.00 0.00
0.00 0.00 0.00 0.00 0.00 0.00 0.00 0.00 0.00 0.00 0.00 0.00 0.00 0.00 0.00 0.01 0.01 0.00 0.00 0.00 0.01 0.01 0.01 0.01 0.01 0.00 0.00 0.00 0.00 0.00 0.00 0.00 0.00 0.00 0.00 0.00 0.00 0.00 0.00 0.00 0.00 0.00 0.00 0.00 0.00 0.00 0.00 0.00 0.00 0.00 0.00 0.00 0.00 0.00
0.00 0.00 0.00 0.00 0.00 0.00 0.00 0.00 0.00 0.00 0.00 0.00 0.00 0.00 0.00 0.00 0.00 0.00 0.01 0.01 0.02 0.02 0.01 0.01 0.01 0.01 0.01 0.00 0.00 0.00 0.00 0.00 0.00 0.00 0.00 0.00 0.00 0.00 0.00 0.00 0.00 0.00 0.00 0.00 0.00 0.00 0.00 0.00 0.00 0.00 0.00 0.00 0.00 0.00
0.00 0.00 0.00 0.00 0.00 0.00 0.00 0.00 0.00 0.00 0.00 0.00 0.01 0.00 0.00 0.00 0.00 0.00 0.01 0.01 0.01 0.01 0.01 0.02 0.02 0.03 0.03 0.03 0.03 0.03 0.03 0.02 0.01 0.01 0.01 0.00 0.00 0.00 0.00 0.00 0.00 0.00 0.00 0.00 0.00 0.00 0.00 0.00 0.00 0.00 0.00 0.00 0.00 0.00
0.00 0.00 0.00 0.00 0.00 0.00 0.00 0.00 0.00 0.00 0.00 0.00 0.01 0.01 0.01 0.00 0.01 0.01 0.01 0.01 0.01 0.01 0.01 0.01 0.01 0.02 0.03 0.04 0.05 0.06 0.06 0.04 0.03 0.02 0.02 0.01 0.01 0.00 0.00 0.00 0.00 0.00 0.00 0.00 0.00 0.00 0.00 0.00 0.00 0.00 0.00 0.00 0.00 0.00
0.00 0.00 0.00 0.00 0.00 0.00 0.00 0.00 0.00 0.00 0.00 0.00 0.00 0.00 0.00 0.01 0.00 0.01 0.00 0.01 0.01 0.01 0.01 0.02 0.03 0.02 0.03 0.04 0.04 0.04 0.04 0.03 0.02 0.01 0.00 0.00 0.00 0.00 0.00 0.00 0.00 0.00 0.00 0.00 0.00 0.00 0.00 0.00 0.00 0.00 0.00 0.00 0.00 0.00
0.00 0.00 0.00 0.00 0.00 0.00 0.00 0.00 0.00 0.00 0.00 0.01 0.00 0.00 0.01 0.01 0.00 0.00 0.00 0.00 0.01 0.01 0.01 0.01 0.02 0.02 0.03 0.03 0.03 0.03 0.02 0.01 0.00 0.00 0.00 0.00 0.00 0.00 0.00 0.00 0.00 0.00 0.00 0.00 0.00 0.00 0.00 0.00 0.00 0.00 0.00 0.00 0.00 0.00
0.00 0.00 0.00 0.00 0.00 0.00 0.00 0.00 0.00 0.00 0.00 0.00 0.01 0.00 0.00 0.00 0.01 0.01 0.01 0.01 0.01 0.01 0.00 0.01 0.01 0.01 0.01 0.01 0.01 0.01 0.00 0.00 0.00 0.00 0.00 0.00 0.00 0.00 0.00 0.00 0.00 0.00 0.00 0.00 0.00 0.00 0.00 0.00 0.00 0.00 0.00 0.00 0.00 0.00
0.00 0.00 0.00 0.00 0.00 0.00 0.00 0.00 0.01 0.00 0.00 0.01 0.01 0.00 0.00 0.00 0.01 0.01 0.01 0.01 0.01 0.01 0.01 0.01 0.01 0.00 0.00 0.00 0.00 0.00 0.00 0.00 0.00 0.00 0.00 0.00 0.00 0.00 0.00 0.00 0.00 0.00 0.00 0.00 0.00 0.00 0.00 0.00 0.00 0.00 0.00 0.00 0.00 0.00
0.00 0.00 0.00 0.00 0.00 0.00 0.01 0.00 0.01 0.00 0.00 0.00 0.00 0.00 0.00 0.01 0.01 0.01 0.01 0.01 0.01 0.01 0.01 0.00 0.00 0.00 0.00 0.00 0.00 0.00 0.00 0.00 0.00 0.00 0.00 0.00 0.00 0.00 0.00 0.00 0.00 0.00 0.00 0.00 0.00 0.00 0.00 0.00 0.00 0.00 0.00 0.00 0.00 0.00
0.00 0.00 0.00 0.00 0.00 0.01 0.01 0.01 0.01 0.00 0.00 0.00 0.00 0.00 0.01 0.01 0.01 0.01 0.00 0.01 0.00 0.00 0.00 0.00 0.00 0.00 0.00 0.00 0.00 0.00 0.00 0.00 0.00 0.00 0.00 0.00 0.00 0.00 0.00 0.00 0.00 0.00 0.00 0.00 0.00 0.00 0.00 0.00 0.00 0.00 0.00 0.00 0.00 0.00
0.00 0.00 0.00 0.00 0.01 0.00 0.00 0.00 0.01 0.01 0.01 0.00 0.00 0.00 0.00 0.00 0.01 0.01 0.00 0.01 0.00 0.00 0.00 0.00 0.00 0.00 0.00 0.00 0.00 0.00 0.00 0.00 0.00 0.00 0.00 0.00 0.00 0.00 0.00 0.00 0.00 0.00 0.00 0.00 0.00 0.00 0.00 0.00 0.00 0.00 0.00 0.00 0.00 0.00
0.00 0.00 0.00 0.00 0.00 0.00 0.00 0.00 0.00 0.00 0.00 0.00 0.01 0.00 0.01 0.00 0.00 0.01 0.00 0.00 0.00 0.00 0.00 0.00 0.00 0.00 0.00 0.00 0.00 0.00 0.00 0.00 0.00 0.00 0.00 0.00 0.00 0.00 0.00 0.00 0.00 0.00 0.00 0.00 0.00 0.00 0.00 0.00 0.00 0.00 0.00 0.00 0.00 0.00
MSLP
989.91 991.01 992.31 993.59 994.59 995.48 996.19 997.09 997.93 998.68 1000.10 1000.65 1001.64 1002.45 1003.47 1004.49 1005.41 1006.36 1005.09 1004.86 1004.48 1002.50 1003.35 1003.33 1002.91 1002.96 1003.04 1003.41 1004.57 1006.13 1007.14 1007.60 1007.57 1007.88 1008.37 1008.85 1009.21 1009.20 1009.06 1008.81 1009.67 1010.17 1010.89 1011.38 1011.46 1011.31 1010.14 1009.51 1009.70 1009.68 1009.94 1009.73 1010.05 1009.96
990.32 991.55 992.54 993.54 994.30 994.84 995.61 996.60 997.62 997.68 999.01 1000.06 1001.21 1002.46 1003.36 1004.05 1005.00 1005.91 1005.33 1004.32 1003.53 1002.75 1004.22 1004.53 1004.79 1004.67 1004.55 1003.78 1003.73 1005.61 1005.10 1005.80 1006.34 1006.80 1008.30 1009.29 1009.82 1010.20 1009.81 1009.16 1009.32 1009.41 1009.51 1009.79 1010.10 1009.60 1009.78 1009.71 1009.82 1010.21 1010.47 1010.62 1010.64 1010.79
990.95 991.73 992.51 993.11 993.83 994.69 995.52 996.36 996.61 997.62 999.03 1000.03 1001.05 1001.91 1002.83 1003.94 1004.68 1004.43 1004.69 1003.71 1002.88 1003.48 1004.69 1004.79 1005.17 1005.76 1005.54 1005.27 1005.18 1004.92 1005.59 1005.31 1006.12 1006.78 1008.18 1009.38 1009.96 1009.85 1009.91 1009.30 1009.13 1009.33 1010.01 1010.07 1010.15 1009.42 1009.63 1010.15 1010.64 1011.00 1011.39 1011.58 1011.60 1011.67
991.12 992.13 992.85 993.29 993.52 994.07 994.94 995.92 996.92 997.97 999.06 999.99 1000.89 1001.89 1002.74 1003.45 1004.13 1004.71 1004.98 1004.09 1002.85 1003.39 1004.45 1005.86 1006.10 1006.16 1006.24 1005.69 1005.57 1005.51 1005.26 1006.19 1006.70 1007.30 1008.53 1009.68 1010.11 1009.96 1009.96 1009.50 1009.48 1009.68 1010.19 1010.01 1010.09 1009.91 1010.39 1011.25 1011.94 1012.50 1012.59 1012.52 1012.49 1012.58
991.58 992.67 993.40 993.42 993.98 994.53 995.22 996.05 996.96 997.90 998.84 999.75 1000.76 1001.64 1002.23 1003.08 1004.10 1005.08 1004.85 1004.30 1003.74 1002.97 1004.75 1006.03 1006.36 1006.77 1006.09 1005.81 1005.80 1005.86 1005.95 1006.24 1006.94 1008.12 1009.06 1009.75 1010.10 1010.60 1011.14 1010.89 1010.35 1010.35 1010.23 1010.85 1010.83 1011.66 1012.04 1012.11 1013.42 1013.63 1013.48 1013.78 1013.89 1014.07
992.21 992.80 993.40 993.92 994.39 994.92 995.49 996.19 996.98 997.78 998.50 999.21 1000.12 1001.38 1002.36 1003.24 1003.89 1003.77 1004.77 1005.10 1004.20 1003.31 1004.40 1006.16 1007.19 1007.26 1006.75 1006.41 1006.35 1006.36 1006.40 1006.73 1007.22 1008.63 1009.90 1010.22 1011.01 1010.98 1011.43 1011.14 1011.62 1011.89 1012.25 1012.45 1012.17 1012.98 1013.35 1014.02 1014.69 1014.93 1015.18 1015.48 1015.84 1016.34
992.83 993.19 993.52 993.83 994.24 994.70 995.28 996.09 997.02 997.89 998.75 999.77 1000.82 1001.60 1002.34 1003.07 1003.75 1004.56 1004.95 1005.05 1004.43 1004.12 1004.97 1006.63 1007.28 1007.96 1007.97 1007.37 1007.83 1007.56 1007.64 1008.01 1008.23 1009.70 1011.05 1011.31 1011.66 1011.71 1012.27 1011.89 1012.71 1013.28 1013.49 1013.64 1013.96 1013.94 1014.46 1014.99 1015.98 1016.81 1017.39 1018.01 1018.55 1019.05
994.26 994.19 994.62 994.93 995.07 995.25 995.63 996.24 997.21 998.20 999.10 999.95 1000.91 1001.89 1002.50 1003.58 1005.06 1004.98 1005.55 1005.42 1003.76 1005.40 1005.18 1006.58 1007.95 1008.30 1008.57 1008.23 1008.73 1008.95 1008.89 1008.97 1010.28 1011.26 1012.11 1012.37 1012.77 1012.94 1012.94 1013.64 1014.08 1014.35 1014.21 1014.71 1014.96 1015.16 1015.73 1016.85 1017.61 1018.27 1019.06 1019.55 1019.78 1020.17
995.64 995.43 995.68 996.03 996.44 996.59 996.83 997.35 997.95 998.86 999.63 1000.32 1001.16 1002.07 1003.03 1003.89 1004.40 1005.37 1006.05 1005.78 1005.79 1006.22 1005.78 1006.95 1008.00 1009.16 1009.45 1009.73 1010.03 1010.23 1009.92 1010.94 1011.75 1012.00 1012.56 1012.82 1013.64 1013.97 1014.61 1014.85 1015.20 1015.47 1015.57 1015.84 1016.56 1017.04 1017.52 1018.00 1018.75 1019.34 1019.80 1020.23 1020.35 1020.57
996.42 996.68 997.09 997.30 997.43 997.54 997.84 998.40 998.83 999.45 1000.02 1000.65 1001.46 1001.83 1003.70 1005.00 1005.51 1005.70 1006.22 1006.16 1006.16 1006.35 1006.92 1008.28 1008.85 1009.70 1010.11 1010.43 1011.09 1011.26 1011.60 1011.73 1012.16 1013.08 1013.24 1013.51 1014.66 1015.61 1016.02 1016.28 1016.31 1016.06 1016.36 1017.11 1017.52 1018.21 1018.72 1019.18 1019.56 1019.87 1019.99 1020.08 1020.34 1020.86
998.50 998.57 998.78 998.50 998.36 998.93 999.40 999.75 1000.05 1000.43 1000.72 1001.16 1002.05 1003.64 1004.63 1005.14 1005.31 1005.70 1006.30 1006.62 1006.79 1007.85 1008.82 1009.46 1009.37 1009.81 1010.76 1010.54 1011.44 1012.01 1012.17 1012.40 1012.75 1013.29 1013.45 1014.29 1015.21 1016.25 1016.85 1016.86 1016.71 1016.68 1017.21 1017.54 1018.05 1018.97 1019.21 1019.36 1019.80 1020.14 1020.57 1021.19 1021.64 1021.94
999.63 999.77 999.97 1000.08 1000.11 999.78 999.77 999.75 999.93 1000.80 1001.70 1001.94 1002.33 1003.82 1004.46 1004.76 1005.74 1007.19 1008.27 1008.58 1008.63 1009.69 1010.25 1010.38 1010.49 1010.70 1011.31 1010.95 1011.43 1012.29 1012.59 1012.82 1012.88 1013.45 1013.94 1014.49 1015.86 1016.71 1017.18 1017.32 1017.20 1017.38 1017.69 1018.18 1018.72 1019.17 1019.70 1020.16 1020.57 1021.00 1021.42 1021.94 1022.43 1022.63
1001.13 1001.16 1000.99 1001.20 1001.53 1001.51 1000.77 1001.31 1001.43 1001.88 1002.28 1002.17 1002.96 1004.64 1005.17 1006.96 1007.73 1008.51 1009.18 1009.76 1010.27 1010.65 1010.86 1010.84 1011.05 1011.25 1011.66 1011.56 1012.19 1012.54 1012.97 1013.27 1013.25 1013.95 1014.21 1015.20 1016.36 1017.19 1017.55 1017.70 1017.93 1018.19 1018.55 1018.94 1019.47 1020.09 1020.65 1021.23 1021.71 1022.01 1022.50 1022.88 1022.98 1023.24
1002.58 1002.67 1002.80 1002.64 1002.64 1002.66 1002.50 1002.19 1001.74 1001.71 1002.04 1003.72 1005.29 1007.20 1008.08 1009.10 1009.86 1010.23 1010.36 1010.76 1011.54 1011.40 1011.09 1011.20 1011.31 1011.61 1012.04 1012.29 1012.71 1012.99 1014.08 1013.90 1014.05 1014.28 1014.68 1016.06 1016.89 1017.51 1017.75 1018.08 1018.60 1019.27 1019.87 1019.93 1020.43 1021.08 1021.64 1022.14 1022.74 1023.28 1023.67 1023.95 1024.15 1024.24
1003.65 1003.48 1003.19 1003.74 1003.95 1003.45 1003.21 1002.91 1002.85 1003.23 1004.91 1006.52 1007.45 1009.37 1010.53 1011.41 1011.66 1011.76 1011.72 1011.80 1012.18 1012.07 1011.68 1011.59 1011.77 1012.01 1012.53 1012.96 1013.27 1013.84 1014.32 1014.09 1014.05 1014.37 1015.58 1016.61 1017.45 1017.74 1018.02 1018.53 1019.28 1019.96 1020.53 1020.64 1021.21 1022.02 1022.59 1022.92 1023.20 1023.65 1024.11 1024.39 1024.71 1024.98
1004.49 1004.25 1005.38 1005.24 1004.77 1004.24 1003.90 1003.74 1004.44 1005.61 1007.82 1009.22 1010.43 1011.43 1011.94 1012.13 1012.57 1012.69 1012.83 1013.03 1013.04 1012.66 1012.02 1011.53 1011.98 1012.38 1012.94 1013.14 1013.44 1013.47 1013.79 1013.95 1014.92 1015.68 1016.60 1017.37 1017.95 1018.28 1018.63 1019.13 1019.65 1020.09 1020.65 1021.19 1021.87 1022.55 1023.16 1023.58 1023.84 1024.17 1024.65 1024.89 1025.19 1025.30
1005.42 1006.72 1007.02 1006.49 1006.15 1005.75 1005.49 1006.03 1007.53 1009.38 1010.64 1011.53 1012.47 1012.74 1012.85 1013.20 1013.60 1013.83 1013.80 1013.83 1013.54 1013.02 1012.70 1012.35 1012.46 1013.13 1013.46 1013.52 1013.85 1014.01 1014.52 1015.17 1016.08 1016.76 1017.57 1018.04 1018.53 1018.89 1019.33 1019.93 1020.61 1020.96 1021.33 1021.89 1022.45 1023.02 1023.61 1024.11 1024.52 1024.70 1024.80 1025.13 1025.26 1025.25
1007.09 1007.20 1006.82 1006.30 1005.94 1006.02 1006.94 1007.84 1009.19 1010.70 1012.16 1013.00 1013.36 1013.92 1014.06 1014.31 1014.42 1014.48 1014.42 1014.10 1013.70 1013.54 1013.22 1013.27 1013.39 1013.79 1013.88 1014.17 1014.54 1015.20 1015.94 1016.40 1017.17 1017.60 1018.21 1018.79 1019.29 1019.65 1019.92 1020.39 1020.95 1021.40 1022.06 1022.71 1023.27 1023.76 1024.26 1024.54 1024.68 1024.95 1025.33 1025.62 1025.46 1025.52
1008.20 1007.77 1007.18 1006.60 1006.21 1006.85 1008.61 1010.10 1010.48 1011.90 1013.46 1013.94 1014.39 1014.64 1014.85 1015.09 1015.22 1015.20 1014.98 1014.63 1014.17 1013.89 1013.84 1013.98 1014.45 1014.84 1015.35 1015.59 1015.95 1016.27 1016.70 1017.13 1017.86 1018.78 1019.40 1019.79 1020.17 1020.59 1020.93 1021.33 1021.81 1022.37 1022.96 1023.37 1023.69 1024.14 1024.76 1025.35 1025.74 1025.97 1026.22 1026.29 1026.27 1026.32
1007.97 1007.73 1007.49 1007.10 1006.51 1008.06 1010.28 1011.57 1011.54 1012.44 1013.68 1014.70 1014.89 1015.19 1015.39 1015.61 1015.82 1015.78 1015.53 1015.05 1014.62 1014.39 1015.04 1015.74 1016.78 1017.50 1017.61 1017.70 1017.47 1017.12 1017.23 1017.76 1018.36 1019.07 1020.05 1020.67 1021.18 1021.60 1021.91 1022.24 1022.62 1023.36 1023.90 1024.50 1025.09 1025.29 1025.39 1025.75 1026.46 1026.85 1027.13 1027.24 1027.20 1027.25
1008.20 1008.61 1008.22 1007.78 1008.73 1010.08 1011.94 1012.42 1012.95 1013.69 1014.26 1014.84 1015.44 1015.23 1015.74 1015.91 1016.08 1016.15 1016.08 1015.80 1015.95 1017.11 1017.75 1018.57 1018.83 1019.12 1019.15 1018.87 1018.39 1017.85 1017.81 1018.16 1018.68 1019.02 1019.82 1020.89 1021.74 1022.15 1022.75 1023.29 1023.73 1024.01 1024.46 1025.07 1025.50 1026.20 1026.55 1026.94 1027.42 1027.73 1027.87 1027.89 1028.04 1027.77
1009.91 1009.57 1009.52 1009.79 1010.88 1012.17 1013.23 1013.96 1013.76 1014.22 1014.62 1015.25 1015.38 1015.59 1016.07 1016.24 1016.50 1016.88 1016.99 1016.98 1018.45 1019.64 1019.99 1020.22 1020.19 1019.98 1020.02 1020.04 1019.87 1019.75 1019.89 1020.02 1020.34 1020.67 1021.21 1021.85 1022.38 1023.07 1023.72 1024.21 1024.62 1025.25 1025.90 1026.36 1026.67 1027.16 1027.52 1028.09 1028.53 1028.60 1028.45 1028.43 1028.19 1027.79
1010.50 1010.45 1011.24 1012.02 1012.83 1013.82 1015.42 1014.68 1014.67 1014.90 1015.14 1015.66 1015.91 1016.25 1016.61 1016.90 1017.26 1017.25 1017.86 1019.10 1020.51 1021.32 1021.27 1021.44 1021.64 1021.64 1021.63 1021.71 1021.67 1021.63 1021.50 1021.47 1021.84 1022.32 1022.77 1023.30 1023.94 1024.61 1025.14 1025.65 1026.00 1026.35 1026.88 1027.54 1027.89 1028.13 1028.47 1029.13 1028.99 1029.15 1028.78 1028.61 1028.26 1028.00
1011.62 1012.80 1013.66 1014.24 1014.71 1015.71 1016.05 1015.98 1015.94 1015.92 1016.14 1016.17 1016.34 1016.96 1017.50 1017.84 1017.94 1018.09 1019.17 1021.07 1022.36 1022.47 1022.22 1022.23 1022.25 1022.38 1022.73 1023.07 1023.33 1023.64 1023.68 1023.65 1023.75 1024.04 1024.38 1024.62 1025.16 1025.91 1026.49 1027.10 1027.65 1028.13 1028.44 1028.59 1028.73 1028.92 1029.10 1029.31 1029.51 1029.26 1029.12 1028.89 1028.50 1028.44
1013.27 1015.89 1015.64 1015.95 1016.18 1016.19 1016.50 1016.78 1016.72 1016.51 1016.86 1017.15 1017.24 1017.85 1018.35 1018.64 1018.82 1019.68 1020.89 1022.59 1023.28 1023.68 1023.74 1023.50 1023.44 1023.49 1023.74 1024.31 1024.87 1025.33 1025.47 1025.23 1025.40 1025.73 1026.15 1026.31 1026.66 1027.05 1027.47 1028.01 1028.63 1029.22 1029.45 1029.31 1029.41 1029.57 1029.62 1029.74 1029.66 1029.56 1029.42 1029.08 1028.92 1028.80
1015.78 1017.29 1017.26 1017.31 1017.31 1016.99 1017.18 1017.22 1017.54 1017.67 1017.64 1017.79 1018.38 1018.90 1019.16 1019.33 1020.19 1021.62 1023.11 1024.31 1024.75 1025.29 1025.46 1025.22 1024.70 1024.93 1025.55 1025.93 1026.25 1026.70 1026.99 1026.87 1026.92 1027.17 1027.74 1027.75 1027.68 1027.71 1028.08 1028.46 1028.85 1029.52 1030.21 1030.34 1030.28 1030.18 1030.03 1029.99 1029.92 1029.80 1029.49 1029.19 1029.03 1028.96
1017.53 1018.17 1018.43 1018.59 1018.39 1018.13 1018.20 1018.51 1018.49 1018.33 1018.48 1018.70 1019.10 1019.53 1019.93 1020.69 1022.13 1023.97 1025.20 1026.20 1026.27 1026.95 1027.10 1027.02 1026.69 1026.70 1027.05 1027.52 1027.96 1028.24 1028.39 1028.31 1028.26 1028.62 1028.95 1029.15 1029.35 1029.54 1029.64 1029.86 1030.35 1030.95 1030.96 1030.97 1030.98 1030.72 1030.55 1030.35 1030.11 1029.88 1029.65 1029.35 1029.18 1029.20
1019.00 1019.11 1018.95 1019.17 1018.74 1018.73 1018.77 1018.93 1019.16 1019.53 1019.81 1020.18 1020.32 1020.91 1021.83 1022.95 1024.62 1026.06 1026.78 1027.47 1027.65 1027.81 1028.05 1028.33 1028.57 1028.57 1028.68 1028.78 1028.83 1028.92 1029.04 1029.30 1029.52 1029.54 1029.71 1029.94 1030.24 1030.53 1030.80 1030.92 1031.45 1031.86 1031.61 1031.42 1031.56 1031.28 1031.01 1030.70 1030.34 1029.94 1029.77 1029.64 1029.60 1029.52
1019.69 1019.95 1019.76 1019.77 1019.59 1019.75 1020.07 1020.23 1020.60 1021.39 1021.89 1021.56 1021.69 1023.06 1024.78 1026.50 1027.73 1027.81 1028.26 1028.36 1028.28 1028.23 1028.43 1028.76 1029.23 1029.40 1029.58 1029.81 1029.99 1030.08 1030.11 1029.94 1029.61 1029.67 1029.78 1029.88 1030.10 1030.42 1031.05 1031.23 1031.17 1031.16 1031.18 1031.15 1031.17 1031.17 1031.03 1031.02 1030.65 1030.51 1030.42 1030.23 1029.94 1029.76
1020.54 1020.61 1020.21 1020.45 1020.51 1020.82 1021.56 1021.88 1022.16 1022.91 1023.22 1023.47 1024.09 1025.39 1026.68 1028.12 1029.34 1029.48 1029.28 1029.26 1029.29 1029.55 1029.89 1030.03 1030.02 1029.89 1030.01 1029.95 1030.38 1030.85 1031.24 1031.39 1031.45 1031.30 1031.02 1031.04 1031.25 1031.46 1031.43 1031.34 1031.34 1031.26 1031.36 1031.24 1031.13 1030.94 1030.81 1030.68 1030.49 1030.16 1030.12 1029.96 1029.75 1029.66
1021.23 1020.83 1020.90 1021.06 1021.49 1022.23 1022.67 1022.89 1023.15 1023.52 1023.97 1024.65 1025.22 1025.75 1027.04 1028.65 1029.86 1030.62 1030.74 1030.66 1030.49 1030.38 1030.28 1030.44 1030.78 1030.91 1031.00 1031.16 1031.13 1031.27 1031.37 1031.95 1032.43 1032.41 1032.50 1032.30 1032.01 1031.73 1031.56 1031.66 1031.60 1031.52 1031.58 1031.38 1031.22 1031.02 1030.83 1030.81 1030.43 1030.09 1029.87 1029.84 1029.89 1029.93
1021.84 1021.99 1021.78 1021.75 1022.30 1023.03 1023.03 1022.96 1023.14 1023.40 1024.26 1024.98 1026.15 1026.97 1027.84 1028.25 1029.38 1030.91 1031.95 1031.33 1031.01 1031.03 1031.68 1031.33 1031.31 1031.83 1032.27 1032.35 1032.51 1032.50 1032.88 1032.65 1032.51 1032.78 1032.70 1032.57 1032.29 1031.93 1031.91 1031.83 1031.65 1031.50 1031.47 1031.44 1031.26 1030.92 1030.72 1030.63 1030.44 1030.19 1029.97 1029.89 1029.93 1030.13
1022.59 1022.67 1022.78 1022.73 1022.85 1023.08 1023.68 1023.74 1023.69 1024.30 1024.96 1025.77 1026.93 1027.63 1028.34 1028.92 1030.19 1031.62 1032.64 1032.76 1032.61 1032.51 1032.50 1032.52 1032.62 1032.73 1033.01 1033.07 1033.05 1032.95 1032.95 1032.65 1033.04 1033.10 1032.91 1033.13 1033.26 1033.00 1032.77 1032.00 1031.52 1031.35 1031.41 1031.29 1031.08 1030.81 1030.53 1030.39 1030.30 1030.15 1030.14 1030.15 1030.21 1030.28
Thickness
5375 5373 5371 5369 5370 5372 5378 5385 5398 5418 5425 5439 5454 5469 5480 5490 5501 5509 5534 5545 5555 5579 5580 5590 5602 5607 5615 5621 5605 5608 5603 5605 5610 5603 5605 5608 5600 5610 5611 5620 5599 5595 5588 5575 5585 5565 5576 5617 5609 5599 5604 5608 5602 5601
5386 5385 5386 5385 5390 5400 5408 5414 5424 5442 5450 5461 5469 5480 5489 5499 5508 5513 5527 5548 5565 5577 5571 5580 5586 5595 5605 5619 5625 5610 5623 5619 5621 5616 5605 5602 5586 5580 5604 5598 5614 5600 5610 5605 5603 5603 5608 5610 5605 5603 5599 5592 5590 5586
5413 5414 5414 5417 5423 5427 5434 5441 5451 5460 5466 5474 5484 5491 5500 5508 5515 5529 5535 5552 5567 5566 5564 5573 5577 5583 5596 5606 5616 5614 5614 5627 5623 5624 5611 5602 5588 5602 5578 5600 5605 5608 5603 5596 5595 5607 5603 5597 5593 5589 5583 5577 5575 5571
5434 5431 5433 5439 5447 5452 5456 5462 5468 5475 5480 5488 5496 5503 5509 5517 5521 5526 5534 5549 5567 5567 5558 5561 5570 5575 5587 5599 5607 5613 5620 5615 5614 5615 5599 5581 5585 5602 5595 5601 5600 5601 5595 5595 5592 5597 5591 5580 5574 5565 5563 5563 5560 5556
5452 5451 5451 5457 5463 5472 5478 5481 5486 5491 5498 5503 5507 5511 5518 5521 5522 5524 5536 5548 5560 5572 5554 5556 5565 5569 5585 5595 5600 5606 5609 5609 5605 5594 5583 5589 5592 5586 5578 5582 5585 5592 5591 5577 5576 5573 5566 5566 5553 5549 5548 5542 5539 5534
5472 5472 5476 5480 5484 5489 5493 5497 5502 5506 5511 5515 5518 5519 5521 5523 5527 5540 5542 5541 5553 5568 5562 5551 5555 5561 5575 5585 5592 5597 5602 5603 5603 5587 5579 5586 5579 5584 5566 5579 5572 5570 5565 5561 5563 5554 5550 5541 5534 5529 5525 5520 5513 5505
5489 5492 5494 5499 5502 5506 5510 5511 5513 5515 5517 5517 5517 5520 5523 5527 5531 5538 5549 5545 5550 5560 5556 5547 5549 5553 5561 5574 5574 5583 5587 5586 5590 5576 5561 5570 5570 5574 5554 5569 5559 5550 5547 5545 5540 5539 5531 5525 5512 5502 5493 5484 5474 5466
5494 5500 5501 5505 5510 5515 5519 5522 5521 5520 5520 5520 5521 5520 5524 5524 5519 5532 5529 5534 5553 5548 5558 5543 5540 5549 5554 5559 5559 5567 5568 5575 5562 5553 5550 5549 5551 5549 5555 5544 5538 5534 5535 5528 5524 5520 5512 5497 5487 5478 5467 5458 5452 5444
5494 5501 5504 5506 5507 5512 5517 5520 5522 5521 5520 5521 5521 5522 5523 5524 5530 5527 5522 5529 5536 5542 5551 5533 5543 5542 5542 5542 5545 5549 5557 5543 5544 5542 5542 5545 5533 5540 5527 5526 5518 5511 5510 5508 5496 5489 5483 5476 5465 5456 5450 5443 5438 5434
5501 5502 5503 5505 5508 5512 5516 5516 5518 5520 5521 5522 5524 5528 5521 5517 5516 5520 5527 5535 5537 5537 5537 5521 5535 5534 5538 5535 5528 5536 5530 5535 5534 5527 5532 5531 5515 5505 5501 5496 5494 5499 5493 5482 5475 5465 5456 5450 5447 5443 5441 5439 5433 5423
5490 5494 5497 5504 5508 5508 5510 5513 5514 5515 5517 5524 5522 5514 5514 5512 5523 5525 5522 5531 5537 5522 5518 5519 5533 5531 5524 5532 5517 5519 5517 5524 5520 5525 5525 5517 5512 5489 5484 5483 5484 5483 5475 5471 5464 5452 5450 5447 5439 5433 5426 5415 5405 5398
5487 5491 5494 5497 5500 5508 5513 5518 5520 5520 5519 5524 5526 5517 5518 5524 5521 5508 5501 5504 5515 5512 5504 5511 5515 5516 5509 5524 5520 5517 5508 5513 5513 5515 5516 5517 5486 5476 5472 5470 5470 5467 5463 5457 5451 5444 5437 5430 5423 5414 5406 5396 5386 5378
5480 5483 5489 5492 5494 5498 5508 5508 5511 5512 5514 5521 5519 5502 5518 5497 5507 5515 5516 5507 5508 5497 5496 5504 5502 5505 5503 5512 5502 5503 5500 5503 5510 5494 5504 5490 5471 5461 5459 5458 5454 5451 5446 5441 5434 5425 5416 5406 5397 5391 5382 5372 5367 5360
5471 5475 5477 5482 5488 5492 5498 5503 5511 5518 5521 5509 5499 5490 5496 5494 5487 5491 5498 5493 5479 5483 5493 5495 5492 5497 5493 5488 5492 5502 5474 5487 5486 5491 5495 5464 5453 5447 5449 5446 5439 5428 5417 5419 5412 5402 5392 5384 5373 5363 5355 5348 5341 5337
5464 5470 5476 5477 5479 5488 5494 5501 5506 5508 5499 5489 5486 5477 5468 5458 5460 5463 5468 5474 5470 5474 5486 5488 5489 5494 5483 5485 5480 5474 5472 5481 5486 5490 5464 5445 5436 5439 5437 5432 5420 5408 5398 5399 5391 5377 5366 5362 5358 5350 5340 5332 5323 5313
5458 5464 5459 5464 5473 5481 5488 5494 5492 5489 5473 5463 5456 5457 5452 5460 5458 5458 5460 5461 5461 5467 5480 5493 5483 5488 5475 5474 5472 5484 5487 5487 5464 5451 5436 5428 5424 5424 5420 5412 5404 5399 5390 5381 5371 5360 5349 5342 5337 5331 5320 5311 5302 5295
5452 5444 5445 5453 5460 5467 5473 5474 5465 5451 5449 5446 5440 5437 5445 5444 5445 5443 5446 5448 5451 5461 5469 5474 5474 5464 5461 5463 5461 5463 5459 5451 5433 5427 5418 5414 5408 5407 5400 5391 5377 5374 5369 5361 5353 5345 5335 5326 5316 5309 5304 5294 5287 5283
5438 5440 5446 5453 5460 5463 5459 5456 5451 5444 5432 5429 5433 5428 5427 5427 5432 5432 5433 5436 5444 5445 5454 5453 5456 5449 5457 5454 5450 5437 5424 5422 5414 5412 5406 5399 5392 5387 5383 5375 5367 5360 5350 5341 5332 5324 5314 5307 5303 5295 5284 5275 5271 5265
5428 5434 5442 5450 5456 5455 5443 5433 5438 5426 5416 5415 5414 5415 5416 5416 5416 5419 5421 5427 5435 5439 5442 5445 5443 5445 5436 5432 5420 5412 5407 5405 5397 5386 5378 5374 5368 5361 5357 5353 5346 5339 5330 5323 5316 5308 5297 5285 5277 5271 5262 5256 5250 5245
5427 5432 5437 5443 5450 5442 5424 5417 5425 5421 5412 5403 5405 5405 5406 5406 5405 5406 5409 5420 5427 5432 5421 5417 5403 5394 5393 5390 5391 5399 5396 5390 5383 5375 5362 5356 5349 5343 5337 5332 5328 5316 5308 5298 5288 5282 5278 5270 5258 5249 5241 5235 5229 5222
5421 5420 5426 5434 5429 5421 5407 5408 5405 5402 5400 5397 5393 5401 5397 5397 5395 5395 5398 5405 5400 5385 5384 5374 5371 5369 5369 5371 5376 5381 5381 5378 5372 5369 5359 5345 5335 5329 5320 5311 5303 5297 5290 5281 5273 5261 5252 5245 5236 5229 5222 5217 5208 5204
5401 5406 5410 5410 5404 5396 5392 5387 5394 5391 5390 5385 5388 5390 5384 5384 5382 5377 5379 5383 5366 5355 5353 5350 5351 5355 5354 5351 5352 5351 5348 5344 5340 5335 5330 5323 5317 5307 5297 5289 5282 5271 5261 5253 5246 5238 5231 5223 5213 5208 5204 5198 5193 5189
5393 5396 5390 5387 5383 5377 5362 5376 5374 5377 5375 5373 5376 5372 5371 5369 5366 5369 5362 5353 5339 5332 5333 5331 5327 5327 5327 5326 5325 5323 5323 5323 5317 5310 5303 5296 5286 5277 5268 5260 5254 5248 5240 5229 5223 5218 5211 5200 5198 5190 5187 5181 5177 5171
5381 5371 5365 5364 5364 5353 5352 5353 5359 5362 5360 5362 5365 5356 5353 5352 5353 5355 5345 5324 5312 5313 5317 5317 5316 5313 5308 5302 5298 5293 5290 5288 5284 5279 5273 5268 5260 5250 5242 5233 5226 5219 5214 5209 5204 5199 5193 5186 5178 5175 5169 5163 5158 5150
5367 5343 5351 5350 5348 5351 5348 5345 5347 5353 5347 5344 5349 5342 5337 5337 5339 5333 5323 5303 5296 5292 5291 5294 5293 5291 5288 5280 5272 5263 5259 5259 5255 5249 5243 5239 5233 5229 5223 5216 5208 5199 5194 5192 5187 5180 5175 5168 5162 5156 5149 5145 5137 5129
5337 5325 5331 5332 5333 5341 5340 5339 5332 5330 5334 5335 5327 5323 5322 5326 5320 5305 5290 5274 5270 5265 5262 5263 5269 5265 5254 5249 5245 5238 5233 5232 5230 5226 5219 5218 5217 5215 5210 5205 5200 5188 5175 5170 5165 5160 5156 5149 5143 5136 5131 5126 5120 5112
5318 5314 5313 5312 5313 5319 5319 5316 5317 5322 5321 5319 5315 5312 5315 5310 5293 5267 5254 5242 5243 5234 5232 5231 5233 5232 5227 5221 5215 5212 5211 5211 5210 5205 5200 5195 5191 5186 5183 5179 5172 5163 5156 5151 5145 5140 5135 5129 5124 5118 5113 5108 5103 5096
5299 5300 5303 5299 5306 5308 5307 5307 5306 5301 5298 5293 5296 5292 5290 5278 5261 5237 5229 5222 5219 5218 5215 5212 5209 5207 5206 5204 5202 5201 5198 5194 5190 5188 5183 5178 5172 5165 5158 5154 5147 5139 5136 5131 5125 5119 5114 5109 5104 5101 5096 5090 5083 5078
5287 5284 5288 5283 5291 5290 5285 5287 5285 5274 5267 5275 5282 5269 5248 5227 5216 5218 5213 5212 5212 5212 5209 5205 5199 5195 5193 5189 5185 5182 5180 5179 5180 5177 5174 5170 5162 5154 5142 5136 5131 5127 5121 5115 5109 5102 5096 5088 5085 5080 5074 5069 5066 5062
5276 5274 5282 5277 5279 5278 5267 5264 5262 5252 5251 5249 5244 5232 5221 5208 5199 5199 5200 5199 5197 5193 5188 5186 5184 5184 5181 5180 5173 5165 5158 5153 5149 5147 5147 5143 5135 5128 5123 5119 5113 5108 5101 5095 5089 5084 5079 5073 5069 5066 5061 5058 5055 5050
5268 5273 5272 5271 5266 5257 5251 5249 5247 5244 5239 5232 5228 5227 5215 5199 5189 5182 5180 5179 5179 5178 5177 5173 5167 5164 5160 5156 5154 5151 5146 5135 5126 5123 5118 5115 5112 5108 5104 5098 5092 5086 5079 5074 5068 5064 5060 5054 5052 5051 5050 5046 5040 5035
5258 5254 5260 5262 5254 5243 5243 5245 5243 5243 5232 5226 5212 5205 5198 5198 5189 5172 5160 5163 5164 5161 5150 5154 5151 5143 5136 5132 5127 5124 5116 5115 5112 5106 5101 5096 5092 5088 5082 5076 5071 5065 5059 5054 5050 5047 5044 5040 5038 5036 5034 5031 5027 5021
5246 5245 5242 5244 5244 5240 5228 5229 5230 5222 5216 5208 5195 5189 5183 5182 5169 5154 5143 5139 5138 5137 5134 5131 5127 5123 5117 5113 5110 5107 5102 5098 5092 5086 5081 5074 5067 5062 5056 5054 5051 5047 5042 5039 5036 5033 5030 5027 5024 5021 5018 5014 5010 5007